Location: Anglesey
(53.1800°N, 4.2200°W)
Time: 13:39:28
(UTC+01:00)

ISS - Pass Details

Date: 15 October 2017
Orbit: 401 x 408 km, 51.6° (Epoch: 19 October)

Event Time Altitude Azimuth Distance (km) Brightness Sun altitude
Rises 18:54:50 0° 278° (W) 2,325 1.9 -5.9°
Reaches altitude 10° 18:57:20 10° 259° (W) 1,463 0.8 -6.2°
Maximum altitude 18:59:40 18° 214° (SW) 1,070 -1.1 -6.6°
Drops below altitude 10° 19:01:59 10° 169° (SSE) 1,460 -1.1 -6.9°
Sets 19:04:29 0° 149° (SSE) 2,318 -0.2 -7.3°
